Time,TemperatureF,DewpointF,PressureIn,WindDirection,WindDirectionDegrees,WindSpeedMPH,WindSpeedGustMPH,Humidity,HourlyPrecipIn,Conditions,Clouds,dailyrainin,SoftwareType,DateUTC
2013-06-20 00:23:00,65.0,18.0,-100.00,North,-999,-999.0,-999.0,16,0.00,,,-99.99,,2013-06-20 07:23:00,
2013-06-20 00:44:00,65.0,18.0,-100.00,North,-999,-999.0,-999.0,16,0.00,,,-99.99,,2013-06-20 07:44:00,
2013-06-20 01:22:00,54.0,20.0,-100.00,North,-999,-999.0,-999.0,25,0.00,,,-99.99,,2013-06-20 08:22:00,
2013-06-20 01:43:00,54.0,20.0,-100.00,North,-999,-999.0,-999.0,25,0.00,,,-99.99,,2013-06-20 08:43:00,
2013-06-20 02:22:00,51.0,20.0,-100.00,North,-999,-999.0,-999.0,29,0.00,,,-99.99,,2013-06-20 09:22:00,
2013-06-20 02:43:00,51.0,20.0,-100.00,North,-999,-999.0,-999.0,29,0.00,,,-99.99,,2013-06-20 09:43:00,
2013-06-20 03:43:00,47.0,19.0,-100.00,North,-999,-999.0,-999.0,32,0.00,,,-99.99,,2013-06-20 10:43:00,
2013-06-20 04:43:00,46.0,20.0,-100.00,North,-999,-999.0,-999.0,35,0.00,,,-99.99,,2013-06-20 11:43:00,
2013-06-20 05:22:00,44.0,21.0,-100.00,North,-999,-999.0,-999.0,39,0.00,,,-99.99,,2013-06-20 12:22:00,
2013-06-20 05:43:00,44.0,21.0,-100.00,North,-999,-999.0,-999.0,39,0.00,,,-99.99,,2013-06-20 12:43:00,
2013-06-20 06:00:00,44.0,23.0,-100.00,North,-999,-999.0,-999.0,43,0.00,,,-99.99,,2013-06-20 13:00:00,
2013-06-20 06:42:00,44.0,23.0,-100.00,North,-999,-999.0,-999.0,43,0.00,,,-99.99,,2013-06-20 13:42:00,
2013-06-20 07:00:00,59.0,31.0,-100.00,North,-999,-999.0,-999.0,34,0.00,,,-99.99,,2013-06-20 14:00:00,
2013-06-20 07:22:00,59.0,31.0,-100.00,North,-999,-999.0,-999.0,34,0.00,,,-99.99,,2013-06-20 14:22:00,
2013-06-20 08:00:00,72.0,-99.9,-100.00,North,-999,-999.0,-999.0,25,0.00,,,-99.99,,2013-06-20 15:00:00,
2013-06-20 08:33:00,72.0,34.0,-100.00,North,-999,-999.0,-999.0,25,0.00,,,-99.99,,2013-06-20 15:33:00,
2013-06-20 08:43:00,72.0,34.0,-100.00,North,-999,-999.0,-999.0,25,0.00,,,-99.99,,2013-06-20 15:43:00,
2013-06-20 08:53:00,72.0,34.0,-100.00,North,-999,-999.0,-999.0,25,0.00,,,-99.99,,2013-06-20 15:53:00,
2013-06-20 09:00:00,84.0,27.0,-100.00,North,-999,-999.0,-999.0,12,0.00,,,-99.99,,2013-06-20 16:00:00,
2013-06-20 09:33:00,84.0,27.0,-100.00,North,-999,-999.0,-999.0,12,0.00,,,-99.99,,2013-06-20 16:33:00,
2013-06-20 09:43:00,84.0,27.0,-100.00,North,-999,-999.0,-999.0,12,0.00,,,-99.99,,2013-06-20 16:43:00,
2013-06-20 09:52:00,84.0,27.0,-100.00,North,-999,-999.0,-999.0,12,0.00,,,-99.99,,2013-06-20 16:52:00,
2013-06-20 10:00:00,91.0,20.0,-100.00,North,-999,-999.0,-999.0,7,0.00,,,-99.99,,2013-06-20 17:00:00,
2013-06-20 10:33:00,91.0,20.0,-100.00,North,-999,-999.0,-999.0,7,0.00,,,-99.99,,2013-06-20 17:33:00,
2013-06-20 10:43:00,91.0,20.0,-100.00,North,-999,-999.0,-999.0,7,0.00,,,-99.99,,2013-06-20 17:43:00,
2013-06-20 10:53:00,91.0,20.0,-100.00,North,-999,-999.0,-999.0,7,0.00,,,-99.99,,2013-06-20 17:53:00,
2013-06-20 11:00:00,93.0,16.0,-100.00,North,-999,-999.0,-999.0,5,0.00,,,-99.99,,2013-06-20 18:00:00,
2013-06-20 11:33:00,93.0,16.0,-100.00,North,-999,-999.0,-999.0,5,0.00,,,-99.99,,2013-06-20 18:33:00,
2013-06-20 11:43:00,93.0,16.0,-100.00,North,-999,-999.0,-999.0,5,0.00,,,-99.99,,2013-06-20 18:43:00,
2013-06-20 11:53:00,93.0,16.0,-100.00,North,-999,-999.0,-999.0,5,0.00,,,-99.99,,2013-06-20 18:53:00,
2013-06-20 12:00:00,98.0,11.0,-100.00,North,-999,-999.0,-999.0,3,0.00,,,-99.99,,2013-06-20 19:00:00,
2013-06-20 12:34:00,98.0,11.0,-100.00,North,-999,-999.0,-999.0,3,0.00,,,-99.99,,2013-06-20 19:34:00,
2013-06-20 12:43:00,98.0,11.0,-100.00,North,-999,-999.0,-999.0,3,0.00,,,-99.99,,2013-06-20 19:43:00,
2013-06-20 12:52:00,98.0,11.0,-100.00,North,-999,-999.0,-999.0,3,0.00,,,-99.99,,2013-06-20 19:52:00,
2013-06-20 13:00:00,101.0,19.0,-100.00,North,-999,-999.0,-999.0,5,0.00,,,-99.99,,2013-06-20 20:00:00,
2013-06-20 13:33:00,101.0,-99.9,-100.00,North,-999,-999.0,-999.0,5,0.00,,,-99.99,,2013-06-20 20:33:00,
2013-06-20 13:52:00,101.0,19.0,-100.00,North,-999,-999.0,-999.0,5,0.00,,,-99.99,,2013-06-20 20:52:00,